• In Belarus
  • List of Countries
  • For 7 days
  • Water Temperature
  • Weather Map
  • Weather Widgets
  • user-avatar
    Login

    Hourly Weather Escaldes-Engordany

    Today, 22 February, Saturday

    Time Temperature Precipitation Wind Pressure Humidity
    00:00 +3°C° 0 mm 2 mps 645 mmHg 35%
    01:00 +3°C° 0 mm 2 mps 645 mmHg 33%
    02:00 +3°C° 0 mm 2 mps 644 mmHg 31%
    03:00 +3°C° 0 mm 2 mps 644 mmHg 29%
    04:00 +3°C° 0 mm 2 mps 644 mmHg 27%
    05:00 +4°C° 0 mm 2 mps 645 mmHg 25%
    06:00 +4°C° 0 mm 2 mps 645 mmHg 22%
    07:00 +6°C° 0 mm 2 mps 646 mmHg 25%
    08:00 +9°C° 0 mm 1 mps 647 mmHg 28%
    09:00 +11°C° 0 mm 1 mps 648 mmHg 31%
    10:00 +12°C° 0 mm 1 mps 649 mmHg 30%
    11:00 +13°C° 0 mm 1 mps 649 mmHg 29%
    12:00 +15°C° 0 mm 1 mps 651 mmHg 28%
    13:00 +15°C° 0 mm 1 mps 650 mmHg 30%
    14:00 +14°C° 0 mm 1 mps 650 mmHg 33%
    15:00 +14°C° 0 mm 1 mps 649 mmHg 35%
    16:00 +12°C° 0 mm 1 mps 649 mmHg 44%
    17:00 +9°C° 0 mm 1 mps 648 mmHg 52%
    18:00 +7°C° 0 mm 1 mps 647 mmHg 61%
    19:00 +6°C° 0 mm 1 mps 647 mmHg 56%
    20:00 +6°C° 0 mm 1 mps 648 mmHg 52%
    21:00 +6°C° 0 mm 1 mps 648 mmHg 47%
    22:00 +6°C° 0 mm 1 mps 648 mmHg 45%
    23:00 +6°C° 0 mm 1 mps 648 mmHg 42%

    Tomorrow, 23 February, Sunday

    Time Temperature Precipitation Wind Pressure Humidity
    00:00 +6°C° 0 mm 1 mps 648 mmHg 39%
    01:00 +6°C° 0 mm 1 mps 647 mmHg 38%
    02:00 +6°C° 0 mm 1 mps 647 mmHg 37%
    03:00 +6°C° 0 mm 1 mps 647 mmHg 36%
    04:00 +6°C° 0 mm 1 mps 647 mmHg 36%
    05:00 +6°C° 0 mm 1 mps 647 mmHg 36%
    06:00 +6°C° 0 mm 1 mps 647 mmHg 36%
    07:00 +8°C° 0 mm 1 mps 648 mmHg 36%
    08:00 +10°C° 0 mm 1 mps 649 mmHg 36%
    09:00 +11°C° 0 mm 0 mps 649 mmHg 36%
    10:00 +14°C° 0 mm 1 mps 650 mmHg 33%
    11:00 +16°C° 0 mm 1 mps 650 mmHg 31%
    12:00 +18°C° 0 mm 1 mps 651 mmHg 28%
    13:00 +18°C° 0 mm 1 mps 650 mmHg 31%
    14:00 +16°C° 0 mm 1 mps 650 mmHg 34%
    15:00 +16°C° 0 mm 1 mps 649 mmHg 37%
    16:00 +13°C° 0 mm 1 mps 648 mmHg 45%
    17:00 +11°C° 0 mm 1 mps 647 mmHg 54%
    18:00 +8°C° 0 mm 1 mps 646 mmHg 63%
    19:00 +8°C° 0 mm 1 mps 646 mmHg 54%
    20:00 +6°C° 0 mm 2 mps 646 mmHg 45%
    21:00 +6°C° 0 mm 2 mps 646 mmHg 36%
    22:00 +6°C° 0 mm 2 mps 646 mmHg 33%
    23:00 +6°C° 0 mm 2 mps 646 mmHg 29%

    Day after tomorrow, 24 February, Monday

    Time Temperature Precipitation Wind Pressure Humidity
    00:00 +7°C° 0 mm 1 mps 646 mmHg 26%
    01:00 +7°C° 0 mm 1 mps 645 mmHg 25%
    02:00 +7°C° 0 mm 1 mps 645 mmHg 25%
    03:00 +6°C° 0 mm 1 mps 644 mmHg 24%
    04:00 +6°C° 0 mm 1 mps 644 mmHg 24%
    05:00 +6°C° 0 mm 1 mps 644 mmHg 25%
    06:00 +6°C° 0 mm 1 mps 644 mmHg 25%
    07:00 +8°C° 0 mm 1 mps 644 mmHg 27%
    08:00 +10°C° 0 mm 1 mps 645 mmHg 28%
    09:00 +12°C° 0 mm 0 mps 645 mmHg 29%
    10:00 +13°C° 0 mm 0 mps 645 mmHg 27%
    11:00 +15°C° 0 mm 1 mps 646 mmHg 26%
    12:00 +18°C° 0 mm 1 mps 646 mmHg 25%
    13:00 +18°C° 0 mm 1 mps 645 mmHg 27%
    14:00 +16°C° 0 mm 1 mps 644 mmHg 29%
    15:00 +16°C° 0 mm 1 mps 644 mmHg 31%
    16:00 +13°C° 0 mm 1 mps 643 mmHg 40%
    17:00 +11°C° 0 mm 1 mps 642 mmHg 50%
    18:00 +8°C° 0 mm 1 mps 641 mmHg 59%
    19:00 +7°C° 0 mm 1 mps 640 mmHg 54%
    20:00 +7°C° 0 mm 1 mps 640 mmHg 50%
    21:00 +5°C° 0 mm 2 mps 640 mmHg 45%
    22:00 +5°C° 0 mm 2 mps 640 mmHg 43%
    23:00 +5°C° 0 mm 2 mps 639 mmHg 41%

    25 February, Tuesday

    Time Temperature Precipitation Wind Pressure Humidity
    00:00 +4°C° 0 mm 2 mps 639 mmHg 39%
    01:00 +4°C° 0 mm 2 mps 639 mmHg 40%
    02:00 +4°C° 0 mm 2 mps 638 mmHg 40%
    03:00 +4°C° 0 mm 2 mps 638 mmHg 40%
    04:00 +5°C° 0 mm 1 mps 638 mmHg 39%
    05:00 +4°C° 0 mm 1 mps 637 mmHg 37%
    06:00 +4°C° 0 mm 1 mps 637 mmHg 36%
    07:00 +5°C° 0 mm 1 mps 638 mmHg 37%
    08:00 +6°C° 0 mm 1 mps 638 mmHg 39%
    09:00 +7°C° 0 mm 1 mps 639 mmHg 40%
    10:00 +8°C° 0 mm 1 mps 639 mmHg 42%
    11:00 +8°C° 0 mm 1 mps 639 mmHg 43%
    12:00 +9°C° 0 mm 1 mps 638 mmHg 44%
    13:00 +9°C° 0.1 mm 1 mps 638 mmHg 50%
    14:00 +7°C° 0.1 mm 2 mps 637 mmHg 56%
    15:00 +7°C° 0.1 mm 2 mps 637 mmHg 62%
    16:00 +5°C° 0 mm 2 mps 636 mmHg 69%
    17:00 +4°C° 0 mm 2 mps 636 mmHg 77%
    18:00 +3°C° 0 mm 2 mps 636 mmHg 84%
    19:00 +2°C° 0.1 mm 2 mps 636 mmHg 85%
    20:00 +2°C° 0.1 mm 2 mps 636 mmHg 86%
    21:00 +1°C° 0.1 mm 2 mps 636 mmHg 87%
    22:00 +1°C° 0 mm 2 mps 636 mmHg 87%
    23:00 +1°C° 0 mm 2 mps 636 mmHg 88%

    26 February, Wednesday

    Time Temperature Precipitation Wind Pressure Humidity
    00:00 -1°C° 0 mm 2 mps 635 mmHg 88%
    01:00 -1°C° 0 mm 2 mps 635 mmHg 86%
    02:00 -1°C° 0 mm 2 mps 635 mmHg 85%
    03:00 -1°C° 0 mm 2 mps 634 mmHg 83%
    04:00 -1°C° 0 mm 2 mps 634 mmHg 81%
    05:00 -2°C° 0 mm 2 mps 634 mmHg 79%
    06:00 -2°C° 0 mm 2 mps 633 mmHg 76%
    07:00 -1°C° 0.3 mm 3 mps 634 mmHg 72%
    08:00 0°C° 0.3 mm 3 mps 635 mmHg 68%
    09:00 0°C° 0.3 mm 4 mps 636 mmHg 64%
    10:00 0°C° 0.6 mm 4 mps 636 mmHg 61%
    11:00 +1°C° 0.6 mm 4 mps 636 mmHg 58%
    12:00 +1°C° 0.6 mm 5 mps 637 mmHg 55%
    13:00 0°C° 0.2 mm 4 mps 636 mmHg 55%
    14:00 0°C° 0.2 mm 4 mps 636 mmHg 55%
    15:00 -1°C° 0.2 mm 4 mps 636 mmHg 54%
    16:00 -2°C° 0.3 mm 4 mps 636 mmHg 61%
    17:00 -2°C° 0.3 mm 3 mps 636 mmHg 68%
    18:00 -4°C° 0.3 mm 3 mps 636 mmHg 75%
    19:00 -5°C° 0.3 mm 3 mps 636 mmHg 76%
    20:00 -5°C° 0.3 mm 3 mps 637 mmHg 78%
    21:00 -5°C° 0.3 mm 3 mps 637 mmHg 80%
    22:00 -5°C° 0.3 mm 3 mps 638 mmHg 80%
    23:00 -5°C° 0.3 mm 3 mps 638 mmHg 81%

    27 February, Thursday

    Time Temperature Precipitation Wind Pressure Humidity
    00:00 -5°C° 0.3 mm 3 mps 638 mmHg 82%
    01:00 -4°C° 0.1 mm 2 mps 638 mmHg 82%
    02:00 -4°C° 0.1 mm 2 mps 638 mmHg 83%
    03:00 -5°C° 0.1 mm 2 mps 638 mmHg 84%
    04:00 -5°C° 0 mm 2 mps 638 mmHg 80%
    05:00 -5°C° 0 mm 2 mps 638 mmHg 76%
    06:00 -5°C° 0 mm 2 mps 638 mmHg 73%
    07:00 -1°C° 0 mm 1 mps 639 mmHg 63%
    08:00 +1°C° 0 mm 1 mps 640 mmHg 54%
    09:00 +3°C° 0 mm 0 mps 642 mmHg 44%
    10:00 +5°C° 0 mm 1 mps 642 mmHg 45%
    11:00 +7°C° 0 mm 1 mps 642 mmHg 46%
    12:00 +8°C° 0 mm 1 mps 642 mmHg 47%
    13:00 +8°C° 0 mm 1 mps 642 mmHg 49%
    14:00 +8°C° 0 mm 1 mps 642 mmHg 52%
    15:00 +8°C° 0 mm 1 mps 642 mmHg 55%
    16:00 +6°C° 0 mm 1 mps 641 mmHg 64%
    17:00 +4°C° 0 mm 1 mps 640 mmHg 72%
    18:00 0°C° 0 mm 0 mps 639 mmHg 81%
    19:00 +1°C° 0 mm 1 mps 640 mmHg 79%
    20:00 +1°C° 0 mm 1 mps 640 mmHg 78%
    21:00 +1°C° 0 mm 1 mps 640 mmHg 76%
    22:00 +2°C° 0 mm 1 mps 640 mmHg 74%
    23:00 +2°C° 0 mm 1 mps 640 mmHg 72%
    Show more